RH
16 15 13 12 11 12 13 15 15 16 15 13 12 10 10 10 10 9 8 9 9 10 10 11 11 11 11 11 11 11 11 11 11 11 11 11 11 11 11 11 11 12 12 15 16 15 14 14 13 13 13 13 13 14 14 13 13 13 15 16 15 15 14 13 13 14 15 15 14 14 14 13 13 15 16 15 13 15 18 21 30 36 40 44 44 43 44 47
15 13 11 10 10 11 15 17 17 16 15 13 12 10 9 10 9 9 9 9 9 9 10 10 11 11 11 11 11 11 11 11 11 12 12 12 11 11 11 11 11 12 14 15 15 14 13 13 13 13 13 13 13 14 14 14 13 14 16 16 15 14 14 13 13 14 15 15 14 14 14 14 14 17 18 18 16 15 18 21 27 32 38 44 43 43 45 49
13 12 11 12 13 15 18 20 19 16 14 13 11 10 9 9 9 9 9 9 9 9 9 10 11 10 11 11 11 11 12 13 14 14 14 14 13 11 10 11 11 13 15 16 14 13 12 12 13 12 13 13 14 13 14 14 13 14 15 15 14 14 14 13 13 14 15 15 15 15 14 15 17 19 19 21 22 18 17 21 23 25 33 41 42 42 48 52
14 14 15 16 17 19 20 20 19 17 15 12 11 10 9 9 8 9 8 8 8 8 9 10 10 10 10 10 9 11 13 15 15 15 14 14 13 12 11 10 11 14 16 15 14 13 12 12 13 12 12 14 14 12 13 13 13 14 14 13 14 14 13 13 13 14 15 15 14 15 14 16 18 20 21 23 25 19 22 26 23 24 32 40 42 45 51 53
18 18 18 19 19 20 21 20 18 17 15 13 11 10 10 9 8 8 8 8 8 8 8 9 9 9 9 9 10 12 15 18 18 16 15 12 11 11 11 10 12 15 15 14 13 12 12 13 12 12 12 14 14 12 13 14 13 14 13 12 13 13 13 13 14 14 14 14 14 15 15 16 18 22 23 25 26 26 31 33 27 31 38 42 44 48 51 50
20 19 19 19 20 20 20 19 18 16 16 14 11 10 10 10 9 8 7 8 8 8 8 8 9 8 9 10 12 13 17 20 19 18 16 14 11 10 10 10 13 15 14 13 13 12 12 12 12 12 12 14 14 12 14 14 12 12 12 12 12 13 13 13 13 13 14 14 15 15 16 18 20 24 26 27 30 30 32 32 32 39 43 44 45 46 47 48
19 18 20 21 21 21 20 19 19 18 17 15 12 11 10 10 9 9 8 8 8 8 8 8 8 8 9 12 14 15 17 17 15 16 15 14 12 10 10 11 13 15 14 13 12 11 11 10 11 12 12 13 13 13 14 13 11 11 12 12 12 13 12 13 13 14 14 15 16 16 17 20 21 25 28 30 31 29 29 31 37 45 46 46 47 47 46 48
19 20 21 22 23 22 21 21 21 20 20 17 14 11 10 10 9 9 9 9 8 8 8 8 8 8 11 13 15 16 15 14 12 14 14 12 12 11 11 11 13 14 12 12 11 10 10 11 11 11 11 12 12 12 12 11 11 10 11 12 12 12 13 13 13 14 15 16 16 17 18 20 21 22 25 28 30 27 29 34 40 44 46 47 48 49 50 50
21 21 22 23 23 23 22 22 21 21 21 20 18 14 10 10 10 9 10 10 10 9 8 9 8 9 12 13 16 17 13 11 11 13 12 11 11 11 12 12 12 13 12 12 11 10 11 12 12 11 13 13 12 13 12 11 13 12 11 12 13 13 13 13 13 15 17 17 18 18 19 20 20 22 23 26 30 30 31 36 41 42 45 48 48 50 51 50
21 23 23 23 23 23 22 22 21 21 20 20 21 18 13 10 11 10 10 10 10 10 9 9 9 10 13 13 17 18 13 10 10 11 10 11 11 11 13 13 12 13 12 12 11 11 12 14 13 12 13 12 12 13 12 12 14 13 12 13 13 13 13 13 13 16 18 18 19 19 19 20 19 22 24 25 30 33 33 36 40 41 42 45 47 50 51 50
20 22 23 22 23 22 22 21 21 20 20 19 21 21 17 12 12 11 11 11 10 10 10 9 9 12 13 14 18 18 12 10 9 9 9 10 11 12 12 13 14 13 13 12 11 12 14 14 13 12 13 12 12 13 12 12 13 13 13 13 13 13 13 13 14 16 18 18 19 19 18 19 19 20 22 24 29 32 34 35 38 40 42 44 46 49 50 51
19 21 21 21 21 22 21 21 20 20 20 19 20 22 21 14 12 13 12 12 11 10 9 9 11 13 15 16 17 15 12 11 10 9 9 9 10 11 11 12 12 13 13 12 12 13 14 15 14 14 14 14 13 13 13 13 11 12 13 12 12 12 13 13 14 17 18 18 19 18 18 18 19 19 21 23 27 30 32 34 35 38 41 42 45 48 49 50
17 19 19 19 19 19 20 19 20 20 20 20 20 23 21 14 12 13 13 13 12 11 9 9 12 15 18 20 17 15 13 11 11 10 10 10 10 10 9 9 10 11 12 13 14 14 13 14 15 15 14 14 14 14 14 13 12 13 13 12 13 14 14 14 15 18 18 18 19 17 20 23 19 18 21 23 26 28 30 32 33 39 43 42 43 46 47 49
15 16 17 17 17 17 17 16 17 18 20 21 21 23 22 16 14 14 14 13 13 12 11 11 14 17 20 20 17 16 15 13 13 12 11 11 11 11 10 10 10 11 12 14 16 15 13 14 15 16 14 15 15 14 14 13 13 13 13 13 14 16 17 16 16 19 18 18 19 16 21 28 22 18 22 24 25 27 29 30 31 37 43 42 42 45 47 48
14 14 14 15 16 16 15 14 14 16 19 21 22 23 22 19 18 16 15 14 14 14 12 14 17 19 20 19 17 16 15 15 15 13 12 12 12 12 12 12 12 13 13 14 15 15 14 14 16 16 14 15 14 15 16 14 14 13 15 15 14 16 19 18 17 20 19 18 19 16 20 31 25 18 22 24 25 27 27 30 31 34 39 40 42 44 44 46
13 13 13 13 14 15 14 14 13 14 18 20 22 23 23 21 21 19 18 18 17 15 14 16 18 20 22 20 18 17 16 17 16 15 14 13 13 13 13 13 13 13 14 14 14 14 16 15 16 16 14 15 15 16 17 17 16 15 17 19 17 16 18 19 17 19 20 18 19 17 21 32 26 17 22 23 25 27 26 28 30 33 37 37 39 40 40 42
13 13 12 12 13 13 14 14 14 15 18 20 20 21 22 23 22 21 20 19 19 17 17 19 19 21 23 20 19 19 18 17 16 16 15 14 15 15 15 15 16 16 16 16 15 15 16 16 16 17 15 15 15 16 18 19 19 18 19 21 20 17 19 22 20 19 20 19 20 19 20 26 23 18 21 23 24 26 26 27 29 32 34 35 35 36 37 38
13 12 11 11 12 13 13 14 14 16 19 19 18 19 20 21 22 24 21 20 19 18 19 20 20 23 22 19 20 20 18 18 17 17 16 15 16 16 17 17 17 18 17 17 17 16 17 17 17 18 17 16 16 17 19 21 20 20 21 22 21 18 19 23 23 21 20 20 21 20 20 23 21 19 20 21 24 25 26 26 28 30 32 33 32 31 31 33
12 12 12 11 11 12 14 14 14 17 18 18 18 19 20 20 22 24 23 22 20 20 22 21 21 25 23 20 21 20 19 18 17 17 17 16 16 17 18 18 17 18 18 18 18 18 18 18 19 20 21 21 19 18 19 20 20 20 22 22 22 20 19 22 23 22 21 20 22 22 24 24 22 20 20 20 23 25 26 27 28 29 30 31 31 30 29 31
12 11 11 11 11 12 13 13 15 18 19 18 18 19 23 22 24 25 24 23 22 19 21 22 22 24 24 22 22 20 19 19 18 18 17 17 17 17 18 17 17 18 18 18 20 20 19 20 22 22 24 23 20 19 19 19 19 20 21 21 22 21 22 24 23 21 20 22 25 24 23 23 22 21 20 20 22 24 25 26 27 27 28 30 31 30 29 31
12 12 11 11 11 12 13 14 17 18 18 19 18 21 24 22 25 26 22 22 22 19 20 22 22 24 24 24 23 23 21 20 19 19 19 18 18 18 18 18 17 18 18 18 20 20 19 22 23 22 22 21 20 20 19 19 19 20 21 21 22 21 23 26 24 22 21 22 25 26 22 23 25 23 21 20 20 21 23 25 26 26 26 28 29 30 29 31
11 12 12 11 12 13 15 16 18 18 19 20 21 25 27 26 25 24 21 21 21 20 21 21 21 23 24 24 24 25 24 23 21 20 20 19 19 20 19 18 18 18 18 18 19 19 19 23 23 20 21 22 22 21 20 21 22 21 21 23 24 23 24 26 24 22 22 22 26 27 22 23 26 23 21 21 20 20 22 23 24 25 25 26 27 28 28 31
11 12 12 12 13 15 16 18 19 19 20 22 25 29 30 30 27 24 24 24 22 21 21 20 22 24 25 25 24 24 26 25 24 22 21 20 20 21 20 19 19 19 19 18 19 20 21 23 21 20 22 23 23 23 22 24 23 21 22 25 26 26 25 27 29 28 25 24 25 26 22 22 23 22 21 21 22 23 23 24 24 25 25 25 24 26 28 31
12 13 14 15 16 17 18 19 20 20 21 24 27 29 31 31 29 28 27 25 22 21 20 22 24 25 26 26 25 26 27 27 25 24 23 22 22 21 20 20 20 20 20 20 20 20 22 24 22 20 23 23 23 24 23 23 26 25 23 24 27 30 27 26 32 34 29 26 25 23 22 21 23 23 23 22 23 25 24 23 23 23 23 24 24 26 29 31
15 15 17 17 18 19 20 21 21 21 23 25 27 28 29 29 29 29 28 26 25 21 21 24 24 26 26 26 27 26 26 26 25 26 24 24 24 23 22 21 21 22 21 20 21 21 24 25 24 23 23 22 23 25 24 23 27 29 25 22 25 30 29 26 29 29 27 28 28 26 22 22 25 27 27 24 23 25 25 24 23 23 23 23 24 27 29 31
17 18 18 19 19 20 21 22 22 21 22 25 29 29 28 27 27 29 29 30 29 23 23 25 25 27 27 27 28 27 27 26 24 25 26 26 25 25 25 23 22 23 22 21 22 23 24 24 24 23 23 23 24 27 27 23 26 30 29 26 24 25 28 28 28 27 26 28 31 28 23 24 27 28 29 26 23 25 27 26 26 25 25 25 25 26 28 29
19 19 20 19 20 20 22 23 22 21 21 24 28 27 25 24 26 30 31 31 29 24 25 26 26 28 29 29 28 29 33 30 24 27 28 27 26 26 28 26 23 24 22 23 25 25 24 25 25 25 25 27 25 26 31 28 26 32 35 31 28 29 31 31 30 29 28 29 30 28 25 25 26 28 31 28 24 26 28 29 28 27 28 28 28 28 27 28
20 18 18 19 19 18 20 21 21 20 20 20 23 23 21 22 27 33 36 36 33 26 26 27 28 29 28 30 30 30 33 31 28 30 28 28 28 27 28 27 26 26 24 26 30 29 26 25 27 27 28 29 26 28 34 31 28 33 36 32 31 34 34 34 32 30 31 31 28 29 29 27 25 27 31 27 24 27 30 30 28 27 28 29 30 31 30 30
20 18 17 17 18 18 19 20 20 19 18 17 18 19 19 24 31 35 36 38 35 29 28 31 31 31 29 30 31 31 32 31 31 31 29 30 30 29 29 29 28 28 26 27 30 30 27 25 25 24 26 28 29 31 33 32 32 35 36 33 32 33 33 34 32 29 32 32 28 30 33 29 25 27 31 29 28 31 33 31 28 27 27 29 30 32 32 31
22 21 19 18 18 17 16 17 17 17 16 14 14 15 18 25 35 41 39 35 33 32 32 34 34 33 32 33 33 32 33 34 33 32 31 32 31 31 31 30 28 27 26 25 26 25 23 23 23 21 22 25 28 32 33 33 34 35 34 34 33 33 32 32 31 29 30 30 29 32 32 28 24 26 30 31 29 31 32 30 29 29 28 29 30 30 30 30
24 25 22 20 21 19 16 16 15 14 14 12 11 14 21 30 39 44 40 33 31 33 34 35 35 34 34 37 37 36 35 36 34 32 31 30 29 28 27 27 26 25 25 24 23 22 21 22 23 21 20 20 23 27 30 32 33 33 35 36 36 37 37 35 33 32 30 28 32 32 29 28 25 26 31 30 25 25 29 30 30 30 30 30 31 31 31 31
26 28 26 25 24 21 18 17 15 14 13 14 15 17 24 34 42 41 37 33 34 34 34 35 36 35 35 38 38 36 36 35 31 27 26 25 25 25 24 25 25 24 26 26 24 23 22 21 21 21 20 19 20 24 28 29 30 31 33 37 37 35 38 38 34 34 31 30 35 31 28 29 27 29 34 30 23 22 24 28 28 29 30 30 30 30 31 31
28 29 27 25 25 22 19 17 16 15 16 17 17 18 22 30 39 40 37 35 35 35 36 36 37 38 39 38 33 30 30 28 24 22 21 20 22 23 21 21 21 21 25 25 23 21 22 22 19 19 21 20 19 24 28 28 29 31 32 36 36 33 38 38 31 31 31 31 35 34 31 31 29 32 33 27 26 24 23 26 28 28 29 31 31 31 32 32
25 27 26 24 23 21 18 18 17 15 17 17 17 20 21 22 29 36 38 35 32 32 36 39 38 38 40 36 28 24 23 22 19 19 19 19 22 23 21 20 18 19 22 22 22 21 23 26 25 22 22 21 20 21 25 26 29 32 31 31 33 32 36 36 32 33 34 34 40 39 36 32 31 36 34 29 30 29 27 28 29 30 30 32 34 33 34 36
21 22 23 22 22 20 18 18 16 14 16 18 18 21 20 16 21 29 33 34 33 32 33 37 37 37 37 32 24 20 20 21 18 18 19 20 22 23 22 20 18 19 20 22 25 22 20 23 23 21 21 20 20 21 21 22 25 29 28 28 29 30 32 34 34 36 35 35 38 36 33 30 31 34 32 30 31 31 32 32 31 32 32 33 36 36 38 40
17 18 20 21 21 20 19 17 15 14 16 18 18 19 17 15 19 24 27 29 32 31 31 34 35 35 35 30 24 22 22 21 20 20 21 21 21 22 21 20 19 19 19 21 24 23 20 22 20 19 20 20 20 22 21 21 24 28 28 27 29 30 31 35 37 37 35 34 31 30 30 30 30 31 29 28 29 28 30 32 33 34 33 33 36 38 41 45
16 17 20 22 21 21 20 16 14 15 16 17 18 17 17 17 18 19 20 23 27 29 30 32 34 34 34 31 28 26 25 25 24 23 23 23 24 24 22 23 22 21 22 21 22 23 22 23 23 20 20 20 20 21 22 21 23 25 27 28 30 30 30 33 35 35 34 32 29 28 31 30 29 33 34 32 31 30 30 31 34 36 35 34 36 38 40 45
14 16 20 21 21 22 19 15 15 17 18 18 18 17 17 18 17 16 18 20 22 25 27 32 34 32 31 32 31 28 28 29 27 25 25 24 27 27 25 26 25 24 24 22 23 25 21 21 24 22 20 20 20 20 21 22 22 24 25 26 28 30 32 34 37 37 35 34 33 30 31 29 26 30 36 36 34 33 33 34 36 38 38 38 38 37 39 43
13 15 20 20 20 21 18 15 17 19 21 20 18 19 20 19 17 16 18 19 20 21 24 28 30 30 29 30 30 28 27 28 27 26 25 25 28 28 26 27 27 25 25 25 24 25 24 24 25 26 24 21 19 20 22 24 24 24 24 24 24 27 28 31 34 36 37 40 40 35 33 32 29 29 33 35 35 34 35 37 39 40 41 42 41 40 40 41
13 16 20 19 18 19 17 17 19 21 23 22 20 21 22 20 17 17 19 20 20 21 22 23 25 27 28 28 27 26 25 25 23 23 23 23 24 26 25 26 27 26 24 23 23 24 25 26 25 26 28 25 23 25 28 29 28 27 26 26 26 27 29 30 31 32 34 37 38 38 35 33 34 35 33 35 36 35 35 37 39 41 43 44 45 44 42 42
11 14 19 19 18 18 18 19 22 23 24 24 22 22 22 20 18 19 20 20 20 20 21 22 22 24 25 24 25 24 22 22 21 20 20 19 19 22 25 24 24 23 21 21 24 24 24 26 26 26 28 28 28 30 31 29 27 26 27 27 29 31 33 35 34 35 37 36 35 36 36 36 40 40 36 37 38 36 36 37 38 41 44 45 46 45 44 43
11 14 18 17 17 19 19 22 24 24 24 26 25 23 21 20 20 20 20 21 20 20 20 21 22 22 22 23 23 22 21 21 20 18 19 18 17 20 22 21 21 21 19 21 25 24 22 22 23 24 24 24 26 28 29 29 28 27 27 26 28 31 32 34 35 35 37 40 40 39 38 41 45 41 37 36 37 37 37 38 40 43 45 47 47 45 44 43
13 14 15 13 16 18 20 25 25 22 23 26 24 22 20 21 22 22 21 21 21 20 21 22 22 22 23 22 22 21 20 20 20 18 18 19 19 19 19 21 22 21 20 22 25 25 23 22 22 24 23 23 24 22 21 24 26 28 31 33 32 32 35 38 39 39 41 45 48 47 44 47 49 46 43 42 39 39 40 40 42 44 47 50 51 51 49 45
14 15 15 14 14 16 20 25 25 24 26 25 23 22 20 20 23 24 24 23 22 22 23 23 22 22 22 21 21 21 20 20 21 19 17 19 21 20 20 22 24 23 23 26 29 28 26 26 27 28 26 27 28 25 22 21 21 25 33 38 36 33 36 39 38 41 44 42 43 45 43 48 54 53 51 49 47 46 46 45 44 44 45 47 49 51 52 50
14 17 17 15 15 16 20 23 23 25 28 26 25 25 22 21 24 25 25 25 24 23 24 23 22 21 21 20 20 21 19 19 21 20 19 19 21 21 22 24 25 25 26 28 29 27 26 28 32 30 29 30 29 27 28 28 27 29 31 33 33 34 39 42 42 47 50 46 47 46 39 43 52 52 48 50 53 52 52 52 51 50 50 50 50 51 51 49
15 16 17 16 16 17 19 21 21 23 26 25 27 27 26 26 25 23 24 25 24 23 24 23 22 22 22 21 22 23 21 19 20 22 22 23 23 23 24 26 26 27 29 29 28 27 28 30 31 30 29 31 29 28 32 33 34 36 35 32 32 35 40 43 44 47 52 53 54 51 44 45 50 49 47 51 56 56 56 56 56 56 57 57 57 57 56 54
18 18 19 19 19 19 19 19 19 21 23 25 29 30 28 28 27 25 24 25 24 24 24 23 23 24 25 26 27 28 26 23 23 25 25 26 26 25 26 28 28 27 30 30 27 29 32 33 33 34 32 31 31 32 34 35 33 34 35 35 35 36 39 42 43 43 48 53 51 47 48 50 47 43 44 47 49 49 48 49 49 50 51 52 54 55 56 57
22 24 25 25 24 23 22 22 22 22 23 25 28 30 29 29 30 29 27 25 25 25 26 26 25 24 25 26 28 30 30 29 28 29 29 29 29 28 28 29 29 28 29 30 28 31 35 34 34 37 36 32 32 34 34 36 36 36 37 39 39 40 41 43 44 42 44 48 47 43 46 49 45 40 40 43 45 44 44 46 46 48 50 49 49 49 48 49
29 28 27 27 27 26 26 27 25 24 26 27 28 29 30 29 30 29 27 27 27 25 25 28 27 23 23 24 25 31 34 32 32 32 31 32 32 32 33 32 31 30 30 32 33 33 35 37 38 39 38 35 36 38 39 40 41 41 42 42 43 44 43 44 44 42 41 43 43 43 45 45 44 40 39 41 44 43 45 49 50 52 52 48 45 44 43 42
40 36 33 31 27 26 28 28 26 26 27 29 29 28 29 29 29 27 26 27 29 27 26 29 28 24 23 25 26 31 34 33 34 34 33 34 34 34 36 36 35 34 34 35 38 37 39 44 46 45 43 40 39 41 41 43 44 43 43 44 44 45 46 46 46 46 45 45 43 45 46 43 41 40 38 40 45 45 45 49 52 52 51 49 47 45 44 42
45 45 44 39 31 28 29 27 25 27 29 29 31 30 30 30 29 28 27 28 29 29 28 29 29 27 26 28 30 32 32 32 33 34 33 35 35 35 37 37 37 39 41 42 44 45 47 50 51 51 49 45 43 43 41 42 42 41 41 42 43 46 46 47 49 50 50 50 48 47 46 43 43 45 43 43 47 47 44 46 51 54 53 52 50 48 45 44
41 43 47 48 41 36 34 30 27 31 34 33 32 32 31 32 31 31 33 33 31 31 32 32 33 33 33 34 34 34 34 34 35 36 36 37 37 36 38 39 40 43 47 50 51 52 54 55 54 54 52 47 43 43 42 41 40 39 39 39 40 43 44 44 46 47 49 52 51 49 47 46 48 51 49 46 48 50 48 47 51 57 56 54 52 50 48 46